Location: Castle Hill Houses
(40.8186°N, 73.8497°W)
Time: 05:48:07
(UTC+00:00)

Daily predictions for brighter satellites

Satellite Brightness Start Highest point End
(mag) Time Altitude Azimuth Time Altitude Azimuth Time Altitude Azimuth
SL-16 R/B 3.3 00:00:29 10° NW 00:05:50 44° WSW 00:11:08 10° S
Cosmos 2227 4.1 00:00:57 10° SSW 00:06:41 75° ESE 00:08:38 42° NE
USA 238 DEB 3.7 00:01:12 10° SSW 00:07:36 54° ESE 00:08:55 47° E
USA 238 3.7 00:01:20 10° SSW 00:07:44 53° ESE 00:08:58 47° E
Cosmos 2221 2.4 00:03:45 10° N 00:08:03 88° W 00:12:21 10° S
Atlas Centaur 2 3.3 00:06:39 10° SW 00:10:33 26° S 00:11:28 24° SSE
Cosmos 1934 Rocket 4.0 00:04:46 10° SSE 00:10:27 52° E 00:10:27 52° E
ADEOS Rocket 3.3 00:04:48 10° NNE 00:11:39 90° WNW 00:19:10 10° SSW
Cosmos 1000 Rocket 4.3 00:06:08 10° N 00:12:22 80° E 00:18:37 10° S
Cosmos 2239 Rocket 4.4 00:08:25 10° S 00:14:44 82° E 00:21:05 10° N
Cosmos 1603 3.6 00:13:13 10° NNW 00:18:40 66° NE 00:18:40 66° NE
Timation 1 Rocket 4.2 00:13:11 10° SSW 00:19:04 68° ESE 00:19:31 66° E
ATLAS 5 CENTAUR R/B 4.3 00:18:54 10° NNW 00:24:34 54° NE 00:48:53 10° SE
Cosmos 2263 Rocket 2.0 00:21:15 10° SSW 00:26:47 83° ESE 00:26:47 83° ESE
Cosmos 1535 Rocket 4.3 00:22:27 10° S 00:28:42 75° E 00:29:53 59° NNE
ISS -0.6 00:29:06 10° NW 00:29:20 11° NW 00:29:20 11° NW
Cosmos 1371 Rocket 4.2 00:27:04 10° SSW 00:31:16 61° SSW 00:31:16 61° SSW
DELTA 2 R/B (1) 4.0 00:27:16 10° W 00:32:40 51° SSW 00:33:00 50° S
Cosmos 44 Rocket 4.0 00:29:57 10° SW 00:34:36 48° NW 00:34:50 47° NW
Cosmos 1943 4.0 00:44:39 10° NNW 00:48:15 41° NNW 00:48:15 41° NNW
Ariane Rocket 4.3 00:52:06 10° SSW 00:56:47 38° W 01:01:30 10° NNW
CZ-3 R/B 4.1 08:30:24 51° SSW 08:34:17 55° S 08:44:59 10° ESE
CENTAUR R/B 4.1 08:47:21 34° N 08:49:46 41° NE 08:57:51 10° ESE
NOSS 3-2 (A) 4.3 08:52:14 66° ENE 08:52:14 66° ENE 09:00:27 10° SE
Cosmos 2344 4.0 09:01:00 52° NNE 09:01:00 52° NNE 09:07:04 10° NNE
Cosmos 2322 Rocket 4.1 09:11:04 10° SSE 09:15:41 26° ESE 09:20:18 10° NE
ATLAS 2AS CENTAUR R/B 3.0 09:18:14 64° S 09:19:37 80° ESE 09:27:39 10° NE
Cosmos 2263 Rocket 3.4 09:18:37 31° NNE 09:20:13 38° ENE 09:25:27 10° SE
USA 238 DEB 3.7 09:32:01 73° SW 09:32:01 73° SW 09:39:17 10° SSE
USA 238 3.7 09:32:05 73° SW 09:32:05 73° SW 09:39:24 10° SSE
Meteor 1-21 Rocket 4.4 09:31:14 52° NNE 09:32:38 73° E 09:38:33 10° SSE
ALOS 3.9 09:33:34 10° NNE 09:37:49 33° E 09:42:01 10° SSE
Cosmos 972 Rocket 4.1 09:44:36 69° N 09:45:21 88° ENE 09:50:42 10° SSE
Gbstr 26 Del rocket 4.1 09:47:27 59° WSW 09:49:00 87° NW 09:56:54 10° NE
FENGYUN 3A 4.4 09:50:13 10° NNE 09:55:30 52° E 10:00:46 10° S
Cosmos 1825 Rocket 4.4 09:59:05 40° S 09:59:05 40° S 10:01:54 10° S
SL-16 R/B 2.4 09:52:24 11° SSW 09:57:49 71° ESE 10:03:28 10° NNE
SL-8 Rocket 4.3 09:51:58 10° N 09:58:07 65° E 10:04:13 10° SSE
Genesis I 3.7 10:00:06 56° E 10:00:06 56° E 10:03:28 10° SE
Cosmos 2360 Rocket 4.0 09:56:01 10° SSE 10:00:56 31° ESE 10:05:52 10° NE
Cosmos 1908 3.9 09:59:14 10° S 10:03:03 55° E 10:06:54 10° NNE
Cosmos 2181 Rocket 4.0 09:57:07 10° S 10:03:19 81° E 10:09:41 10° N
Cosmos 1328 4.3 10:02:26 34° NNE 10:03:53 56° E 10:07:45 10° SSE
STARLINK 1060 4.4 10:05:54 38° NNE 10:05:54 38° NNE 10:08:24 10° NE
Cosmos 923 Rocket 4.0 10:05:12 59° NW 10:05:12 59° NW 10:10:10 10° NNE
Okean O Rocket 3.4 10:01:11 10° NNE 10:05:09 32° E 10:09:06 10° SSE
Cosmos 2058 Rocket 3.6 10:02:41 10° S 10:06:59 59° E 10:11:17 10° NNE
Cosmos 1980 Rocket 3.5 10:09:22 24° NNW 10:09:22 24° NNW 10:12:19 10° N
STARLINK 1030 4.3 10:08:57 39° NNE 10:08:57 39° NNE 10:11:33 10° NE
RESURS DK-1 3.5 10:04:58 10° S 10:08:53 44° ESE 10:12:51 10° NE
Lacrosse 5 1.7 10:09:32 51° SW 10:10:49 87° NW 10:15:56 10° NE
STARLINK 1020 4.2 10:12:37 41° NNE 10:12:37 41° NNE 10:15:23 10° NE
Cosmos 1726 Rocket 3.4 10:09:48 10° SSW 10:14:13 72° W 10:18:38 10° N
CZ-4B R/B 4.4 10:09:21 10° NNE 10:14:35 43° E 10:19:40 10° S
COSMOS 2455 3.7 10:15:33 30° NW 10:15:33 30° NW 10:20:08 10° NNE
STARLINK 1034 4.1 10:15:41 42° N 10:15:41 42° N 10:18:33 10° NE
Abrixas rocket 3.7 10:17:21 28° SSE 10:17:21 28° SSE 10:19:02 10° SE
Cosmos 2341 Rocket 3.9 10:10:36 10° NNW 10:16:47 65° W 10:22:53 10° S
Meteor 1-16 Rocket 4.2 10:11:28 10° SSW 10:17:21 68° W 10:23:10 10° N
COSMO-SKYMED 1 2.4 10:15:52 10° S 10:20:11 77° WSW 10:22:27 28° NNW
Cosmos 2228 3.7 10:22:19 38° NNW 10:22:19 38° NNW 10:25:22 10° N
ATLAS 3B R/B 2.7 10:16:52 20° NNW 10:21:48 81° ENE 10:28:46 10° SE
STARLINK 1033 4.0 10:22:29 42° N 10:22:29 42° N 10:25:36 10° NE
NOSS 3-2 (C) 4.2 10:20:09 27° NW 10:24:34 58° WSW 10:32:52 10° SSE
ADEOS Rocket 4.2 10:20:43 10° SE 10:25:44 38° ENE 10:31:00 10° N
SL-4 R/B 4.0 10:27:57 12° SSW 10:27:57 12° SSW 10:28:30 10° S
Cosmos 158 Rocket 3.7 10:22:23 10° SSW 10:27:14 77° WNW 10:32:12 10° NNE
Orbus 7S? 3.7 10:27:24 40° NW 10:28:45 83° NE 10:35:58 10° SE
STARLINK 1038 4.5 10:26:33 16° SSW 10:29:39 48° SE 10:33:38 10° ENE
STARLINK-60 3.4 10:30:31 49° NNW 10:31:07 60° NE 10:34:26 10° ESE
Cosmos 1703 3.1 10:31:00 31° NNW 10:32:41 63° W 10:36:33 10° S
STARLINK 1046 4.3 10:31:24 15° SSW 10:34:39 53° SE 10:38:42 10° ENE
Cosmos 864 Rocket 4.4 10:28:35 10° N 10:34:50 86° W 10:41:08 10° S
USA 215 3.6 10:29:06 10° ESE 10:35:29 60° NE 10:40:51 15° NW
NOSS 3-4 (A) 3.8 10:33:34 30° W 10:35:59 43° NW 10:42:02 10° NNE
NOSS 3-4 (C) 3.7 10:33:36 29° W 10:36:06 44° NW 10:42:07 10° NNE
USA 32 4.1 10:31:56 10° NNW 10:37:01 52° W 10:42:05 10° SSW
STARLINK 1035 4.2 10:38:09 31° NNW 10:38:09 31° NNW 10:41:09 10° NE
STARLINK 1039 4.1 10:36:07 14° SW 10:39:34 59° SE 10:43:39 10° ENE
PAYLOAD B 4.2 10:33:57 10° NNE 10:39:36 84° WNW 10:45:12 10° SSW
CENTAUR R/B 3.3 10:34:34 18° NW 10:40:56 60° WSW 10:49:29 10° SSE
Cosmos 2218 Rocket 3.9 10:34:48 10° NNW 10:41:10 70° W 10:47:24 10° S
BREEZE M DEB (TANK) 3.2 10:41:13 33° NNW 10:41:38 35° NNW 10:46:06 10° NE
STARLINK 1027 4.3 10:42:23 28° NNW 10:42:23 28° NNW 10:45:29 10° NE
STARLINK 1045 3.9 10:40:54 13° SW 10:44:31 65° SE 10:48:38 10° NE
METEOR-M 4.2 10:41:07 10° N 10:46:21 55° WNW 10:51:33 10° SSW
STARLINK 1044 4.3 10:46:53 29° NW 10:47:28 31° NNW 10:50:53 10° NE
STARLINK 1050 3.7 10:45:57 13° SW 10:49:38 75° SE 10:53:46 10° NE
USA 116 3.9 10:46:00 10° S 10:50:34 63° WSW 10:54:38 10° NNW
Cosmos 1340 Rocket 4.3 10:47:58 10° SSE 10:51:35 38° E 10:55:14 10° NNE
Cosmos 1680 Rocket 4.2 10:49:35 19° WSW 10:52:31 31° WNW 10:57:13 10° N
Cosmos 1959 Rocket 4.5 10:47:00 10° NNW 10:52:59 57° W 10:59:00 10° S
Lacrosse 5 rocket 3.9 10:51:05 10° NNW 10:53:41 15° NNE 10:56:13 10° NE
STARLINK 1055 3.6 10:50:42 12° SW 10:54:35 82° SE 10:58:44 10° NE
STARLINK 1031 4.4 10:55:23 24° NW 10:56:16 27° NNW 10:59:31 10° NE
Meteor 1-11 4.3 10:51:52 10° NNW 10:57:22 58° W 11:02:54 10° S
Meteor 2-12 Rocket 4.4 10:51:38 10° N 10:57:46 89° E 11:03:53 10° S
Cosmos 2322 Rocket 2.5 10:54:03 10° SW 10:59:26 44° WNW 11:04:53 10° NNE
STARLINK 1022 3.6 10:55:29 10° SW 10:59:33 89° SE 11:03:42 10° NE
Cosmos 1371 Rocket 4.2 10:55:45 10° NNW 11:00:54 51° WSW 11:06:02 10° S
Cosmos 2058 4.4 10:58:20 10° N 11:02:19 40° ENE 11:06:17 10° SSE
Cosmos 2263 Rocket 3.0 11:00:21 16° NW 11:03:59 31° WSW 11:08:53 10° SSW
STARLINK 1042 3.5 11:00:22 10° SW 11:04:30 83° NW 11:08:40 10° NE
NOAA 6 4.1 11:00:52 10° N 11:05:58 59° WNW 11:11:03 10° SSW
STARLINK 1056 3.5 11:05:21 10° SW 11:09:29 77° NW 11:13:39 10° NE
Cosmos 2366 rocket 4.3 11:03:46 10° NNW 11:09:44 44° W 11:15:41 10° SSW
Cosmos 1420 Rocket 4.2 11:05:28 10° NNW 11:10:48 79° ENE 11:16:07 10° SSE
ATLAS 2AS CENTAUR R/B 3.8 11:05:45 14° W 11:11:27 31° NW 11:18:20 10° NNE
STARLINK 1054 3.6 11:10:20 10° WSW 11:14:27 71° NW 11:18:35 10° NE
Cosmos 1812 Rocket 3.5 11:10:38 10° S 11:15:00 87° WNW 11:19:26 10° N
ALOS 3.3 11:11:17 10° NNW 11:15:03 25° WNW 11:18:48 10° WSW
Cosmos 1844 Rocket 3.0 11:10:06 10° NNW 11:15:44 69° ENE 11:21:22 10° SSE
Helios 1A Rocket 3.1 11:13:28 10° N 11:17:30 52° WNW 11:21:31 10° SSW
Cosmos 2333 Rocket 3.4 11:13:45 10° S 11:19:16 49° ESE 11:24:49 10° NE
STARLINK 1062 3.6 11:15:18 10° WSW 11:19:24 65° NW 11:23:32 10° NE
IRS-1C Rocket 4.4 11:16:31 10° NNE 11:21:48 72° ESE 11:27:03 10° S
Cosmos 1300 2.9 11:18:30 10° SSW 11:22:11 47° W 11:25:53 10° N
Cosmos 1437 2.5 11:21:24 10° NNW 11:24:25 62° W 11:27:24 10° S
STARLINK 1053 3.7 11:20:21 10° WSW 11:24:27 59° NW 11:28:33 10° NE
H-2A R/B 2.8 11:23:28 10° N 11:27:20 61° WNW 11:31:08 10° SSW
STARLINK 1061 3.8 11:25:23 10° WSW 11:29:27 55° NNW 11:33:31 10° NE
FALCON 9 DEB 3.3 11:27:02 11° WNW 11:30:20 61° SW 11:33:47 10° SE
CZ-4 R/B 3.9 11:29:14 10° NE 11:32:54 28° E 11:36:30 10° SSE
Cosmos 482 Debris 3.9 11:32:15 10° SSW 11:34:02 36° SE 11:35:43 10° ENE
STARLINK 1067 3.8 11:30:23 10° WSW 11:34:25 51° NNW 11:38:29 10° NE
Cosmos 1455 3.7 11:31:39 10° SSE 11:35:18 41° E 11:38:58 10° NNE
STARLINK 1058 3.9 11:35:21 10° WSW 11:39:21 47° NNW 11:43:22 10° NE
YAOGAN 6 3.1 11:36:43 10° NNE 11:40:13 63° E 11:43:40 10° S
Cosmos 1174 3.5 11:36:16 10° SW 11:40:24 73° WNW 11:43:49 10° NNE
Okean O Rocket 2.7 11:37:48 10° NNW 11:41:20 24° WNW 11:44:52 10° WSW
SL-16 R/B 3.5 11:38:35 10° W 11:42:30 19° NW 11:46:27 10° N
AQUARIUS 4.2 11:38:05 10° N 11:42:31 60° WNW 11:46:56 10° SSW
Cosmos 1048 Rocket 4.0 11:37:52 10° SSW 11:43:09 86° WNW 11:48:25 10° NNE
STARLINK 1043 4.0 11:40:25 10° WSW 11:44:22 44° NNW 11:48:21 10° NE
Cosmos 2360 Rocket 2.7 11:39:34 10° SW 11:44:47 37° WNW 11:50:03 10° N
Cosmos 2333 4.2 11:40:17 10° SSW 11:46:02 72° WNW 11:51:50 10° NNE
Okean 3 Rocket 4.4 11:41:39 10° N 11:46:09 58° E 11:50:36 10° SSE
Cosmos 2322 3.8 11:41:46 10° SW 11:47:22 61° WNW 11:52:59 10° NNE
